Regional Weather Roundup
Issued by NWS

Home | Current Version | Previous Version | Graphics & Text | Print | Product List | Glossary On
Versions: 1 2 3 4 5 6 7 8 9 10 11 12 13 14 15 16 17 18 19 20 21 22 23 24 25 26 27 28 29 30 31 32 33 34 35 36 37 38 39 40 41 42 43 44 45 46 47 48 49 50
000
ASUS43 KDMX 030207
RWRIA

WEATHER ROUNDUP FOR IOWA
NATIONAL WEATHER SERVICE DES MOINES IA
800 PM CST MON MAR 02 2015

NOTE: "FAIR" INDICATES FEW OR NO CLOUDS BELOW 12,000 FEET WITH NO
SIGNIFICANT WEATHER AND/OR OBSTRUCTIONS TO VISIBILITY.

* - THESE STATIONS ARE NOT NWS STATIONS...THUS NOT UNDER NWS
QUALITY CONTROL.  THEY ALSO DO NOT REPORT WEATHER SUCH
AS PRECIPITATION OR FOG.

IAZ001>003-012>014-020>022-031>034-043>046-030300-
   NORTHWEST IOWA

CITY           SKY/WX    TMP DP  RH WIND       PRES   REMARKS
CARROLL *      CLOUDY    28  21  74 SE18      30.11F WCI  16
CHEROKEE *     CLOUDY    28  21  74 SE14G20   30.08F WCI  17
DENISON *      CLOUDY    30  21  69 SE13      30.06F WCI  20
LE MARS *      CLOUDY    30  21  69 SE20      30.03F WCI  18
ORANGE CITY *  CLOUDY    30  21  69 SE10G21   30.02F WCI  21
SHELDON *      CLOUDY    27  21  80 SE21      30.02F WCI  13
SIOUX CITY     CLOUDY    35  22  58 SE13      30.02F WCI  26
SPENCER        CLOUDY    27  19  72 SE17      30.08F WCI  14
STORM LAKE *   CLOUDY    27  19  74 SE15      30.08F WCI  15
$$

IAZ055>058-069>071-079>083-090>094-030300-
   SOUTHWEST IOWA

CITY           SKY/WX    TMP DP  RH WIND       PRES   REMARKS
ATLANTIC *     PTCLDY    32  21  64 SE12G18   30.09F WCI  23
AUDUBON *      PTCLDY    30  19  64 SE10G17   30.11S WCI  21
CLARINDA *     CLEAR     32  18  55 SE9       30.13F WCI  24
COUNCIL BLFS * CLEAR     32  23  69 SE13      30.04F WCI  22
CRESTON *      CLEAR     28  21  74 SE10      30.13F WCI  19
HARLAN  *      CLEAR     32  23  69 SE16      30.11F WCI  21
LAMONI         CLOUDY    31  21  66 SE9       30.15F WCI  23
RED OAK *      PTCLDY    32  19  59 SE9       30.10F WCI  24
SHENANDOAH *   CLEAR     32  18  55 SE14      30.09F WCI  22
$$

IAZ047>049-059>061-072>074-084-030300-
   CENTRAL IOWA

CITY           SKY/WX    TMP DP  RH WIND       PRES   REMARKS
AMES           CLOUDY    26  18  71 SE9       30.17F WCI  17
ANKENY *       CLOUDY    28  19  69 SE12      30.17F WCI  18
CHARITON *     CLOUDY    28  19  69 SE9       30.17F WCI  20
DES MOINES     CLOUDY    30  17  58 SE8       30.17F WCI  22
GRINNELL*      CLOUDY    27  19  74 E8        30.21S WCI  18
KNOXVILLE *    CLOUDY    28  16  59 SE12      30.18F WCI  18
MARSHALLTOWN   CLOUDY    25  16  68 SE10      30.18F WCI  15
PELLA *        CLOUDY    28  23  80 SE7       30.22S WCI  21
PERRY *          N/A     28  21  74 SE10      30.15F WCI  19
$$

IAZ004>006-015-016-023>025-035-036-030300-
   NORTH CENTRAL IOWA

CITY           SKY/WX    TMP DP  RH WIND       PRES   REMARKS
ALGONA *       CLOUDY    23  19  86 SE13      30.12F WCI  11
CLARION *      CLOUDY    23  21  93 SE14      30.15F WCI  11
ESTHERVILLE    CLOUDY    24  19  81 SE18      30.09F WCI  10
FORT DODGE *   CLOUDY    27  18  69 SE8G16    30.14F WCI  18
MASON CITY     CLOUDY    21  13  71 SE14      30.19F WCI   8
FOREST CITY *  CLOUDY    23  14  68 SE12      30.16F WCI  12
IOWA FALLS *   CLOUDY    23  18  80 E10       30.18F WCI  12
$$

IAZ007>011-017>019-026>030-037>042-050>054-066-030300-
   NORTHEAST IOWA

CITY           SKY/WX    TMP DP  RH WIND       PRES   REMARKS
CEDAR RAPIDS   CLOUDY    24  18  77 SE10      30.23F WCI  14
CHARLES CITY * CLOUDY    21  14  73 SE12      30.21F WCI   9
CLINTON *      CLOUDY    25  18  74 SE10      30.31F WCI  15
DECORAH *      CLOUDY    23  14  68 S8        30.22F WCI  14
DUBUQUE        CLOUDY    23  17  78 S9        30.25F WCI  13
MONTICELLO *   CLOUDY    25  19  80 SE10      30.26F WCI  15
OELWEIN *      CLOUDY    23  14  68 SE10      30.23F WCI  12
WATERLOO       CLOUDY    23  15  71 SE9       30.22F WCI  13
$$

IAZ064-065-067-068-078-030300-
   EAST CENTRAL IOWA

CITY           SKY/WX    TMP DP  RH WIND       PRES   REMARKS
DAVENPORT      CLOUDY    26  16  65 E9        30.28F WCI  17
IOWA CITY      CLOUDY    26  17  68 E9        30.27F WCI  17
MT. PLEASANT * CLOUDY    25  18  74 SE6       30.25F WCI  18
MUSCATINE *    CLOUDY    28  18  64 SE7       30.28F WCI  21
QUAD CITIES    CLOUDY    27  18  69 E8        30.28F WCI  19
$$

IAZ062-063-075>077-085>089-095>099-030300-
   SOUTHEAST IOWA

CITY           SKY/WX    TMP DP  RH WIND       PRES   REMARKS
BURLINGTON     CLOUDY    27  20  75 SE10      30.24F WCI  17
FAIRFIELD *    MOCLDY    25  16  68 SE8       30.24F WCI  16
FORT MADISON * CLEAR     28  19  69 SE10      30.26F WCI  19
KEOKUK *       CLEAR     28  21  74 SE8       30.24F WCI  20
OSKALOOSA *      N/A     25  19  80 SE8       30.23S WCI  16
CENTERVILLE *  CLEAR     28  19  69 SE12      30.21F WCI  18
OTTUMWA        CLOUDY    25  18  74 SE8       30.22F WCI  16
WASHINGTON *   MOCLDY    27  23  86 SE10      30.25S WCI  17
$$

ABBREVIATIONS USED IN REMARKS
   TC - TEMPERATURES IN CELSIUS
  WCI - WIND CHILL INDEX
   HX - HEAT INDEX
  VSB - VISIBILITY
$$




USA.gov is the U.S. government's official web portal to all federal, state and local government web resources and services.